Wind_Speed
7 7 7 7 7 8 8 9 9 9 9 9 9 8 8 9 9 9 9 9 9 10 10 11 10 10 11 11 11 11 11 11 11 11 11 11 11 12 12 12 13 13 13 14
9 8 8 8 8 9 10 10 10 10 10 9 10 9 9 9 9 10 10 10 11 11 11 11 11 11 11 12 12 12 11 12 12 12 12 12 13 13 13 14 14 14 14 15
11 9 10 10 10 10 10 10 11 11 10 10 10 10 11 10 10 10 11 11 11 12 12 12 13 13 13 13 13 13 13 13 13 13 13 13 13 13 14 14 14 15 15 15
12 12 12 11 11 11 11 12 12 12 11 11 11 11 12 11 11 11 11 11 12 12 13 13 13 13 14 14 14 14 14 14 14 14 14 14 14 14 15 15 15 15 16 16
13 13 13 12 12 12 12 12 12 12 12 12 13 12 12 13 12 12 12 12 12 12 13 13 13 14 15 15 15 15 15 15 15 15 15 15 15 15 15 16 16 16 16 16
14 13 14 13 13 13 13 13 13 13 14 13 13 13 13 13 13 13 13 13 13 13 13 13 14 14 15 15 15 15 16 16 16 16 16 15 15 16 16 16 17 17 17 17
15 14 14 14 14 14 14 13 14 14 15 15 14 14 14 14 14 14 14 14 14 14 14 15 15 15 15 15 15 16 17 17 17 17 17 16 16 17 17 18 18 18 18 18
16 15 15 14 14 14 14 14 14 15 15 15 14 14 14 15 15 15 15 15 15 15 15 15 15 15 15 15 16 17 17 18 18 18 18 18 18 19 19 19 19 19 19 19
16 16 15 15 14 14 15 14 14 15 16 15 15 14 14 14 14 14 15 15 15 15 15 15 16 16 17 17 17 18 18 19 19 19 19 19 19 19 19 19 19 19 19 19
16 16 16 15 15 15 15 15 15 15 15 15 15 14 14 14 15 15 15 15 15 16 16 16 17 17 18 18 18 18 18 19 20 20 20 20 20 20 20 20 20 20 20 20
16 15 15 15 15 15 15 15 16 16 16 16 16 15 14 15 15 16 16 16 16 16 17 17 17 17 18 19 19 19 19 20 20 20 20 21 21 21 22 21 21 21 21 20
16 16 16 16 16 16 16 16 16 16 16 16 16 15 15 15 15 16 16 17 17 17 17 18 18 18 18 19 19 19 20 20 21 21 21 22 22 23 23 22 23 22 22 21
17 17 17 17 18 17 17 16 16 17 17 17 17 16 16 15 15 16 17 17 17 18 18 18 18 18 19 20 20 20 21 21 21 21 22 22 23 23 23 23 23 23 22 22
17 18 18 18 17 18 18 18 17 18 18 18 17 16 16 16 16 16 17 17 18 18 18 18 18 18 19 20 21 21 21 21 21 22 22 23 23 24 23 23 23 23 23 24
18 18 18 18 18 18 18 19 19 18 18 18 17 17 17 17 17 16 17 17 18 18 18 18 18 19 20 20 20 20 21 22 22 22 22 23 23 23 24 24 24 24 24 25
19 19 19 18 18 19 19 19 20 19 19 18 18 17 18 18 18 17 18 18 19 19 19 20 20 20 20 20 21 21 21 21 21 22 22 23 23 23 24 24 24 25 25 25
21 21 20 19 18 19 20 19 19 19 18 19 18 17 18 19 19 19 19 19 20 20 20 21 21 20 21 21 21 21 22 22 22 22 22 23 24 24 24 24 24 25 25 26
21 21 20 19 19 20 20 19 19 19 19 19 18 18 18 19 19 19 19 20 20 21 21 22 22 21 21 22 23 23 23 23 23 23 24 24 24 24 25 25 26 26 27 27
21 21 21 21 21 21 21 20 19 19 20 19 19 18 19 19 19 21 21 21 20 21 21 22 22 23 23 23 23 23 24 24 24 24 25 25 25 25 26 27 27 27 27 27
21 21 21 20 21 21 21 20 20 21 20 19 19 19 19 19 20 20 21 21 21 22 22 23 23 23 23 23 23 23 24 25 25 25 26 26 26 27 27 27 27 27 27 27
22 23 23 22 21 21 20 20 20 21 20 20 20 20 20 20 21 21 21 21 22 22 23 23 23 23 24 24 24 25 25 26 26 26 26 27 27 28 28 28 28 28 28 28
22 23 23 23 23 21 20 20 21 21 21 21 21 21 21 21 21 22 22 22 22 23 23 23 23 23 24 25 26 26 26 26 27 27 27 28 28 28 28 29 29 28 28 29
22 22 22 23 22 22 22 22 21 21 21 22 21 21 21 21 22 23 23 23 23 23 24 23 23 23 24 25 26 27 26 26 27 27 28 29 29 28 28 28 28 29 29 29
23 22 22 22 22 22 23 23 23 23 23 23 23 23 23 22 23 23 23 23 23 23 24 24 24 25 25 26 26 27 26 26 27 27 27 28 28 28 28 28 28 28 29 29
22 23 22 22 22 23 23 23 23 23 23 23 24 24 24 24 24 24 24 24 24 23 24 25 25 26 26 26 25 26 26 26 26 27 27 27 27 27 28 28 28 29 29 29
22 23 23 22 22 23 23 23 24 24 24 24 24 25 25 25 24 24 24 23 24 24 24 25 26 26 26 26 26 26 26 26 26 27 28 28 28 28 28 29 29 30 30 30
Wind_Direction
258 259 260 260 259 259 262 265 266 269 270 265 266 267 262 265 262 260 258 258 259 259 258 257 258 262 264 266 266 269 268 272 276 278 279 280 281 281 282 281 279 279 281 282
253 253 254 258 261 263 266 267 267 268 269 267 268 268 264 266 267 267 264 262 261 260 260 259 260 263 265 266 266 269 270 273 274 277 278 282 283 284 286 285 284 283 284 284
256 255 255 259 262 266 267 267 266 268 269 269 270 270 269 269 271 271 268 266 264 265 263 262 263 265 267 265 266 270 273 276 278 280 282 284 285 286 286 286 286 284 285 286
254 255 257 258 260 265 266 265 266 267 269 270 270 267 268 269 271 272 271 268 266 265 265 266 266 267 269 268 268 270 272 276 280 282 284 284 284 285 285 286 288 287 288 287
254 255 254 256 259 263 265 265 267 269 270 271 271 270 268 270 271 269 269 270 270 267 267 267 267 269 270 270 270 270 273 276 277 279 280 282 282 282 283 285 286 287 289 288
255 254 255 256 257 261 265 269 271 273 272 272 271 271 267 269 271 270 270 270 271 271 270 269 269 272 272 269 268 269 271 274 276 276 278 281 283 282 282 283 284 286 286 286
255 255 256 257 258 261 264 268 273 275 274 273 271 271 271 272 272 271 273 270 270 272 271 271 271 272 273 269 269 270 271 273 276 277 277 280 282 283 283 283 282 284 285 285
256 255 255 257 259 262 265 267 270 273 273 273 272 272 274 276 273 273 274 273 271 270 269 269 269 269 271 271 271 272 273 274 276 277 277 278 280 284 284 284 283 284 285 285
254 255 255 256 257 261 264 265 268 271 273 274 274 274 276 277 275 275 275 274 272 270 269 269 269 270 271 271 272 274 274 275 275 275 277 278 280 283 285 286 284 285 284 283
251 254 256 255 256 259 260 263 265 270 274 275 275 276 275 274 273 274 274 275 273 270 270 269 271 273 272 272 274 276 276 276 275 275 277 277 279 282 284 286 284 284 283 283
248 251 255 256 258 258 260 261 264 268 272 275 277 277 274 273 273 273 275 276 278 276 273 272 273 273 273 273 275 277 277 277 277 277 277 277 279 282 284 284 286 285 284 282
250 250 255 257 258 261 262 262 265 269 272 274 276 278 276 274 273 273 276 279 280 280 278 276 275 273 274 274 276 279 280 279 278 277 277 278 279 282 282 282 285 285 284 282
254 253 257 260 262 262 261 262 264 267 270 273 277 280 278 275 271 272 276 278 279 279 279 278 276 275 274 274 277 279 280 279 277 277 278 279 281 283 281 281 282 284 284 283
255 257 257 261 264 264 261 261 263 266 268 272 275 277 276 276 274 275 277 278 278 278 278 278 276 276 276 276 277 278 278 278 278 279 279 279 281 283 282 281 282 282 281 282
255 256 257 260 263 265 263 261 264 266 269 271 272 272 273 273 275 277 276 277 278 280 280 280 280 279 279 278 278 278 277 277 278 279 279 278 280 282 282 283 283 283 282 282
257 260 261 260 260 261 261 262 263 266 269 271 272 272 273 273 274 275 275 274 276 279 279 281 282 281 280 279 279 279 279 277 277 279 280 280 281 282 282 284 284 283 283 282
258 260 262 262 260 262 261 262 264 269 271 273 274 275 275 274 276 276 274 274 273 275 277 280 281 280 280 280 280 281 280 279 279 281 282 282 282 283 283 285 286 286 285 284
258 259 260 261 261 261 265 263 264 268 270 273 275 275 276 276 278 279 278 277 276 275 276 277 278 279 280 280 281 281 281 281 281 282 283 283 283 283 284 285 286 287 287 285
257 257 259 260 260 262 264 266 268 270 270 272 274 274 276 279 279 280 280 281 280 278 278 277 277 277 278 279 280 281 282 282 283 284 286 286 286 284 284 284 285 286 287 286
259 258 259 260 261 263 265 267 268 268 270 271 273 274 276 278 280 282 282 283 283 281 279 279 279 278 277 277 278 280 282 283 284 285 286 287 287 286 285 285 285 285 286 285
259 259 259 262 263 263 265 267 268 268 269 269 272 274 276 277 279 280 282 284 285 283 280 280 279 277 277 277 278 280 283 284 284 284 286 286 286 286 285 285 285 286 286 285
259 259 260 261 263 264 267 266 267 269 269 271 273 275 276 276 278 280 282 284 285 284 282 280 279 278 277 278 279 281 283 284 284 285 286 287 287 286 286 285 285 286 286 286
259 259 261 263 266 266 266 267 268 270 272 272 273 275 276 278 280 282 283 284 284 283 281 279 279 278 278 280 279 281 283 284 285 285 286 287 287 286 285 285 285 285 285 285
258 259 261 263 264 266 266 267 270 272 273 273 273 274 276 278 281 282 283 284 284 283 282 281 280 280 280 282 282 281 282 285 286 288 288 287 286 285 285 285 285 285 286 286
259 258 261 262 264 265 265 266 269 273 274 274 273 273 275 278 279 280 281 282 284 284 284 284 283 283 283 283 284 283 283 286 288 289 290 288 287 286 286 285 286 286 286 287
260 261 261 261 263 265 264 265 268 271 273 274 274 273 275 277 279 278 278 279 282 283 284 284 284 283 284 283 283 284 285 287 288 290 291 289 287 286 286 286 286 287 287 287
Height
5847 5849 5849 5849 5849 5849 5849 5849 5849 5850 5849 5849 5849 5849 5849 5848 5848 5848 5848 5848 5848 5848 5847 5847 5848 5848 5848 5847 5847 5847 5846 5846 5846 5845 5844 5844 5843 5842 5841 5840 5840 5839 5838 5837
5846 5846 5846 5846 5846 5846 5846 5847 5847 5847 5847 5847 5847 5847 5846 5846 5845 5845 5845 5845 5845 5845 5844 5844 5845 5845 5845 5845 5844 5844 5844 5843 5843 5842 5841 5841 5840 5839 5838 5837 5836 5835 5834 5833
5843 5844 5843 5843 5843 5844 5844 5844 5844 5844 5844 5844 5845 5845 5844 5844 5843 5843 5842 5842 5842 5842 5841 5842 5842 5842 5842 5842 5841 5841 5841 5840 5840 5839 5838 5837 5837 5836 5835 5834 5833 5832 5830 5829
5839 5840 5840 5840 5840 5841 5841 5841 5841 5841 5842 5842 5842 5842 5841 5841 5840 5840 5839 5839 5839 5839 5838 5838 5838 5838 5838 5838 5838 5838 5837 5837 5836 5836 5835 5834 5833 5832 5831 5830 5829 5827 5826 5825
5836 5836 5836 5837 5837 5837 5838 5838 5838 5838 5838 5839 5838 5838 5839 5837 5837 5837 5836 5836 5835 5835 5835 5835 5835 5835 5835 5834 5834 5834 5834 5834 5833 5832 5831 5830 5829 5828 5827 5826 5825 5823 5822 5820
5832 5832 5832 5833 5834 5834 5834 5835 5835 5835 5835 5836 5835 5835 5835 5834 5833 5833 5833 5832 5832 5832 5832 5832 5831 5831 5831 5831 5831 5830 5830 5830 5829 5829 5828 5826 5825 5824 5823 5822 5820 5819 5817 5816
5828 5828 5828 5829 5830 5830 5831 5832 5832 5832 5832 5832 5831 5830 5831 5830 5829 5829 5829 5829 5829 5828 5828 5828 5828 5827 5827 5827 5827 5826 5826 5826 5825 5824 5823 5822 5821 5820 5819 5817 5816 5814 5813 5811
5824 5825 5825 5825 5826 5826 5827 5828 5829 5829 5828 5828 5827 5827 5827 5826 5825 5825 5824 5824 5824 5824 5824 5823 5823 5823 5823 5822 5822 5822 5821 5821 5820 5820 5819 5818 5817 5815 5814 5812 5811 5809 5808 5806
5819 5821 5821 5821 5821 5822 5823 5823 5824 5824 5823 5823 5823 5823 5823 5822 5821 5821 5820 5820 5819 5819 5819 5819 5819 5818 5818 5818 5817 5817 5816 5816 5815 5814 5814 5813 5812 5811 5809 5808 5806 5804 5803 5801
5814 5816 5816 5817 5817 5818 5819 5819 5819 5819 5819 5819 5819 5819 5819 5818 5817 5817 5816 5815 5815 5815 5815 5814 5814 5813 5813 5813 5812 5812 5811 5811 5810 5809 5808 5808 5807 5806 5804 5802 5801 5799 5797 5795
5809 5811 5812 5812 5812 5813 5814 5815 5814 5815 5815 5815 5815 5817 5815 5814 5813 5813 5812 5811 5811 5810 5810 5810 5809 5809 5808 5807 5807 5806 5806 5805 5804 5804 5803 5802 5801 5800 5798 5797 5795 5793 5791 5790
5805 5806 5807 5808 5808 5808 5809 5810 5810 5811 5811 5810 5810 5813 5810 5809 5809 5808 5807 5806 5806 5806 5805 5804 5804 5803 5803 5802 5802 5801 5800 5800 5799 5798 5797 5796 5795 5794 5792 5791 5789 5787 5785 5784
5800 5801 5802 5803 5805 5804 5804 5804 5805 5806 5806 5805 5805 5808 5804 5804 5804 5803 5802 5802 5801 5800 5800 5799 5798 5798 5797 5797 5796 5795 5795 5794 5793 5792 5791 5790 5789 5787 5786 5785 5783 5781 5779 5777
5795 5796 5798 5799 5799 5798 5799 5800 5800 5800 5800 5801 5801 5801 5800 5799 5799 5798 5797 5797 5796 5795 5794 5794 5793 5792 5791 5791 5790 5789 5789 5788 5787 5786 5785 5783 5782 5781 5779 5778 5776 5774 5772 5771
5790 5791 5792 5793 5793 5793 5794 5794 5795 5795 5795 5795 5796 5796 5795 5794 5793 5793 5792 5791 5790 5790 5789 5788 5787 5787 5786 5785 5784 5783 5782 5781 5780 5779 5778 5777 5775 5774 5773 5771 5769 5767 5766 5764
5785 5786 5787 5787 5787 5788 5788 5789 5789 5789 5790 5790 5790 5790 5789 5788 5788 5787 5787 5786 5785 5784 5783 5782 5781 5781 5780 5779 5778 5777 5776 5775 5773 5772 5771 5770 5768 5767 5766 5764 5762 5760 5758 5757
5779 5780 5781 5782 5782 5782 5783 5784 5784 5784 5784 5784 5784 5785 5783 5782 5782 5781 5780 5780 5779 5778 5777 5776 5776 5775 5774 5773 5772 5771 5770 5768 5767 5766 5764 5763 5762 5760 5759 5757 5755 5753 5751 5749
5773 5774 5775 5776 5777 5777 5780 5778 5778 5779 5779 5778 5778 5778 5777 5777 5776 5775 5774 5774 5773 5772 5771 5770 5769 5768 5768 5767 5766 5764 5763 5762 5761 5759 5758 5756 5754 5753 5751 5749 5748 5745 5743 5741
5767 5768 5769 5770 5770 5771 5772 5773 5773 5773 5773 5773 5772 5772 5771 5770 5770 5769 5768 5767 5766 5765 5764 5763 5763 5762 5761 5760 5759 5757 5756 5755 5753 5752 5751 5749 5747 5745 5744 5742 5739 5737 5735 5733
5761 5762 5763 5763 5764 5765 5767 5767 5766 5767 5767 5767 5766 5765 5765 5765 5764 5764 5762 5760 5759 5758 5757 5756 5755 5754 5753 5752 5751 5750 5749 5747 5746 5745 5743 5741 5739 5737 5735 5733 5731 5729 5727 5724
5755 5755 5756 5756 5756 5758 5760 5760 5760 5761 5762 5760 5759 5759 5759 5758 5758 5757 5755 5754 5753 5751 5750 5749 5748 5747 5746 5745 5743 5742 5741 5740 5738 5736 5734 5733 5731 5729 5726 5724 5722 5720 5718 5716
5748 5749 5749 5750 5750 5753 5752 5752 5753 5754 5753 5753 5752 5752 5752 5751 5750 5749 5748 5747 5745 5744 5743 5741 5740 5739 5738 5737 5736 5734 5733 5731 5729 5728 5726 5724 5722 5719 5717 5715 5713 5711 5709 5707
5741 5742 5743 5744 5746 5745 5745 5745 5745 5746 5746 5746 5745 5745 5744 5744 5743 5742 5741 5739 5738 5737 5735 5734 5732 5731 5730 5729 5727 5726 5724 5723 5721 5719 5717 5715 5712 5710 5708 5706 5704 5702 5700 5698
5734 5734 5735 5737 5738 5738 5737 5737 5738 5738 5738 5738 5737 5737 5737 5736 5735 5734 5733 5731 5730 5729 5727 5726 5724 5723 5722 5720 5719 5717 5716 5714 5712 5710 5707 5705 5703 5701 5699 5697 5695 5693 5691 5689
5726 5727 5728 5729 5730 5730 5730 5730 5731 5730 5730 5730 5730 5729 5728 5728 5727 5726 5724 5723 5722 5721 5719 5717 5716 5714 5713 5711 5710 5708 5707 5705 5703 5701 5698 5696 5694 5692 5690 5688 5686 5684 5682 5680
5719 5719 5720 5721 5722 5723 5723 5723 5723 5723 5722 5722 5721 5721 5720 5719 5718 5717 5716 5715 5714 5712 5711 5709 5707 5705 5704 5702 5701 5699 5698 5696 5694 5692 5689 5687 5685 5683 5681 5679 5677 5675 5673 5670